EW9501 Weather Reports


Display with metric or nautical units.
time (UTC)temp
F
wind
direction
speed
MPH
gust
MPH
rain 1hr
in
rain 24hr
in
rain mn
in
humidity
%
barometer
mb
20260903033014 80 0.0 0.0 0.00 0.00 0.00 82 1010.1
20260903031513 80 0.0 0.0 0.00 0.00 0.00 82 1009.9
20260903030011 80 0.0 0.0 0.00 0.00 0.00 82 1010.0
20260903024510 80 0.0 0.0 0.00 0.00 0.00 82 1010.4
20260903023015 80 0.0 0.0 0.00 0.00 0.00 81 1010.6
20260903021511 81 0.0 0.0 0.00 0.00 0.00 80 1010.8
20260903020008 81 0.0 0.0 0.00 0.00 0.00 79 1010.8
20260903014508 81 0.0 0.0 0.00 0.00 0.00 78 1010.8
20260903013007 82 0.0 0.0 0.00 0.00 0.00 77 1010.7
20260903011508 82 0.0 0.0 0.00 0.00 0.00 76 1010.7
20260903010007 82 0.0 0.0 0.00 0.00 0.00 76 1010.5
20260903004518 83 0.0 0.0 0.00 0.00 0.00 75 1010.5
20260903003013 83 0.0 0.0 0.00 0.00 0.00 74 1010.5
20260903001517 85 0.0 0.0 0.00 0.00 0.00 70 1010.4
20260903000006 86 0.0 0.0 0.00 0.00 0.00 67 1010.4
20260902234505 87 0.0 0.0 0.00 0.00 0.00 65 1010.5
20260902233005 89 0.0 0.0 0.00 0.00 0.00 62 1010.4
20260902231504 89 0.0 0.0 0.00 0.00 0.00 61 1010.4
20260902230004 90 0.0 0.0 0.00 0.00 0.00 60 1010.4
20260902224504 91 0.0 0.0 0.00 0.00 0.00 60 1010.4
20260902223003 92 0.0 0.0 0.00 0.00 0.00 58 1010.3
20260902221502 91 0.0 0.0 0.00 0.00 0.00 58 1010.4
20260902220002 92 0.0 0.0 0.00 0.00 0.00 57 1010.4
20260902214501 92 0.0 0.0 0.00 0.00 0.00 57 1010.5
20260902213059 93 0.0 0.0 0.00 0.00 0.00 56 1010.6
20260902211614 92 0.0 0.0 0.00 0.00 0.00 55 1010.8
20260902210117 94 0.0 0.0 0.00 0.00 0.00 52 1010.8
20260902204559 94 0.0 0.0 0.00 0.00 0.00 53 1010.8
20260902203055 95 0.0 0.0 0.00 0.00 0.00 54 1011.0
20260902201609 95 0.0 0.0 0.00 0.00 0.00 52 1011.2
20260902200051 94 0.0 0.0 0.00 0.00 0.00 53 1011.4
20260902194552 94 0.0 0.0 0.00 0.00 0.00 57 1011.5
20260902193049 94 0.0 0.0 0.00 0.00 0.00 55 1011.7
20260902191551 94 0.0 0.0 0.00 0.00 0.00 54 1011.9
20260902190046 94 0.0 0.0 0.00 0.00 0.00 54 1012.0
20260902184546 94 0.0 0.0 0.00 0.00 0.00 55 1012.1
20260902183048 94 0.0 0.0 0.00 0.00 0.00 54 1012.3
20260902181554 94 0.0 0.0 0.00 0.00 0.00 58 1012.4
20260902180057 93 0.0 0.0 0.00 0.00 0.00 58 1012.6
20260902174540 93 0.0 0.0 0.00 0.00 0.00 60 1012.7
20260902173040 92 0.0 0.0 0.00 0.00 0.00 61 1012.9
20260902171537 92 0.0 0.0 0.00 0.00 0.00 59 1013.0
20260902170036 92 0.0 0.0 0.00 0.00 0.00 62 1013.0
20260902164535 92 0.0 0.0 0.00 0.00 0.00 62 1013.5
20260902163029 91 0.0 0.0 0.00 0.00 0.00 64 1013.5
20260902161529 90 0.0 0.0 0.00 0.00 0.00 64 1013.5
20260902160032 90 0.0 0.0 0.00 0.00 0.00 64 1013.5
20260902154524 89 0.0 0.0 0.00 0.00 0.00 67 1013.4
20260902153031 88 0.0 0.0 0.00 0.00 0.00 69 1013.5
20260902151520 87 0.0 0.0 0.00 0.00 0.00 69 1013.8
20260902150015 86 0.0 0.0 0.00 0.00 0.00 72 1013.3
20260902144525 86 0.0 0.0 0.00 0.00 0.00 73 1013.3
20260902143012 85 0.0 0.0 0.00 0.00 0.00 75 1013.3
20260902141505 83 0.0 0.0 0.00 0.00 0.00 77 1013.2
20260902140002 82 0.0 0.0 0.00 0.00 0.00 79 1013.2
20260902134559 81 0.0 0.0 0.00 0.00 0.00 83 1013.2
20260902133055 79 0.0 0.0 0.00 0.00 0.00 85 1013.2
20260902131553 78 0.0 0.0 0.00 0.00 0.00 87 1013.3
20260902130046 76 0.0 0.0 0.00 0.00 0.00 90 1013.2
20260902124543 75 0.0 0.0 0.00 0.00 0.00 91 1013.2
20260902123044 75 0.0 0.0 0.00 0.00 0.00 92 1013.3
20260902121541 74 0.0 0.0 0.00 0.00 0.00 92 1013.3
20260902120046 74 0.0 0.0 0.00 0.00 0.00 92 1013.2
20260902114540 74 0.0 0.0 0.00 0.00 0.00 92 1013.1
20260902113048 74 0.0 0.0 0.00 0.00 0.00 92 1013.0
20260902111544 73 0.0 0.0 0.00 0.00 0.00 92 1012.8
20260902110036 74 0.0 0.0 0.00 0.00 0.00 92 1012.7
20260902104541 74 0.0 0.0 0.00 0.00 0.00 92 1012.7
20260902103035 74 0.0 0.0 0.00 0.00 0.00 92 1012.8
20260902101538 74 0.0 0.0 0.00 0.00 0.00 91 1012.7
20260902100034 74 0.0 0.0 0.00 0.00 0.00 92 1012.8
20260902094533 75 0.0 0.0 0.00 0.00 0.00 92 1012.7
20260902093036 75 0.0 0.0 0.00 0.00 0.00 91 1012.5
20260902091536 75 0.0 0.0 0.00 0.00 0.00 92 1012.6
20260902090032 75 0.0 0.0 0.00 0.00 0.00 92 1012.7
20260902084532 75 0.0 0.0 0.00 0.00 0.00 93 1012.7
20260902083030 74 0.0 0.0 0.00 0.00 0.00 93 1012.7
20260902081531 74 0.0 0.0 0.00 0.00 0.00 93 1012.5
20260902080030 74 0.0 0.0 0.00 0.00 0.00 93 1012.4
20260902074529 74 0.0 0.0 0.00 0.00 0.00 93 1012.3
20260902073029 74 0.0 0.0 0.00 0.00 0.00 93 1012.1
20260902071529 74 0.0 0.0 0.00 0.00 0.00 93 1012.1
20260902070027 74 0.0 0.0 0.00 0.00 0.00 93 1012.2
20260902064527 74 0.0 0.0 0.00 0.00 0.00 93 1012.3
20260902063029 74 0.0 0.0 0.00 0.00 0.00 93 1012.3
20260902061541 74 0.0 0.0 0.00 0.00 0.00 93 1012.5
20260902060024 75 0.0 0.0 0.00 0.00 0.00 93 1012.4
20260902054526 75 0.0 0.0 0.00 0.00 0.00 93 1012.6
20260902053024 75 0.0 0.0 0.00 0.00 0.00 93 1012.7
20260902051522 74 0.0 0.0 0.00 0.00 0.00 93 1012.6
20260902050021 74 0.0 0.0 0.00 0.00 0.00 93 1012.5
20260902044518 75 0.0 0.0 0.00 0.00 0.00 92 1012.4
20260902043017 74 0.0 0.0 0.00 0.00 0.00 92 1012.2
20260902041511 75 0.0 0.0 0.00 0.00 0.00 91 1012.0
20260902040011 75 0.0 0.0 0.00 0.00 0.00 91 1012.1
20260902034512 75 0.0 0.0 0.00 0.00 0.00 91 1012.1